Location: Balsareny
(41.8670°N, 1.8830°E)
Time: 05:02:14
(UTC+01:00)

N. Korean satellite - Pass Details

Date: 06 December 2021
Orbit: 447 x 491 km, 97.3° (Epoch: 23 January)

Event Time Altitude Azimuth Distance (km) Brightness Sun altitude
Rises 06:26:55 0° 6° (N) 2,460 10.1 -17.8°
Reaches altitude 10° 06:29:00 10° 1° (N) 1,581 9.0 -17.4°
Maximum altitude 06:32:16 48° 286° (WNW) 591 6.5 -16.8°
Drops below altitude 10° 06:35:31 10° 210° (SSW) 1,569 9.0 -16.2°
Sets 06:37:34 0° 205° (SSW) 2,438 10.0 -15.9°
